| time (UTC) | temp F | wind direction | speed MPH | gust MPH | rain 1hr in | rain 24hr in | rain mn in | humidity % | barometer mb |
| 20260507093647 | 70 | 68 | 11.0 | 12.0 | 0.00 | 0.00 | 0.00 | 72 | 1008.8 |
| 20260507093446 | 70 | 68 | 11.0 | 13.0 | 0.00 | 0.00 | 0.00 | 72 | 1008.8 |
| 20260507093235 | 70 | 112 | 9.0 | 10.0 | 0.00 | 0.00 | 0.00 | 73 | 1008.8 |
| 20260507093035 | 70 | 112 | 10.0 | 11.0 | 0.00 | 0.00 | 0.00 | 73 | 1008.8 |
| 20260507092834 | 70 | 45 | 11.0 | 12.0 | 0.00 | 0.00 | 0.00 | 73 | 1008.8 |
| 20260507092623 | 70 | 68 | 10.0 | 11.0 | 0.00 | 0.00 | 0.00 | 73 | 1008.8 |
| 20260507092422 | 70 | 68 | 11.0 | 11.0 | 0.00 | 0.00 | 0.00 | 73 | 1008.8 |
| 20260507092223 | 70 | 90 | 12.0 | 14.0 | 0.00 | 0.00 | 0.00 | 73 | 1008.8 |
| 20260507092011 | 70 | 90 | 9.0 | 10.0 | 0.00 | 0.00 | 0.00 | 71 | 1008.8 |
| 20260507091810 | 70 | 68 | 9.0 | 10.0 | 0.00 | 0.00 | 0.00 | 73 | 1008.8 |
| 20260507091611 | 70 | 68 | 9.0 | 10.0 | 0.00 | 0.00 | 0.00 | 74 | 1008.8 |
| 20260507091359 | 70 | 68 | 10.0 | 10.0 | 0.00 | 0.00 | 0.00 | 73 | 1008.8 |
| 20260507091158 | 70 | 45 | 9.0 | 10.0 | 0.00 | 0.00 | 0.00 | 74 | 1008.8 |
| 20260507090959 | 70 | 90 | 9.0 | 10.0 | 0.00 | 0.00 | 0.00 | 73 | 1008.8 |
| 20260507090747 | 70 | 90 | 10.0 | 10.0 | 0.00 | 0.00 | 0.00 | 71 | 1008.8 |
| 20260507090546 | 70 | 112 | 10.0 | 11.0 | 0.00 | 0.00 | 0.00 | 73 | 1008.8 |
| 20260507090346 | 70 | 68 | 13.0 | 16.0 | 0.00 | 0.00 | 0.00 | 73 | 1008.8 |
| 20260507090135 | 70 | 68 | 10.0 | 10.0 | 0.00 | 0.00 | 0.00 | 73 | 1008.8 |
| 20260507085935 | 70 | 90 | 9.0 | 10.0 | 0.00 | 0.00 | 0.00 | 74 | 1008.8 |
| 20260507085734 | 70 | 90 | 14.0 | 15.0 | 0.00 | 0.00 | 0.00 | 73 | 1008.8 |
| 20260507085523 | 70 | 68 | 10.0 | 10.0 | 0.00 | 0.00 | 0.00 | 73 | 1008.8 |
| 20260507085323 | 70 | 112 | 10.0 | 13.0 | 0.00 | 0.00 | 0.00 | 74 | 1008.8 |
| 20260507085123 | 70 | 112 | 10.0 | 12.0 | 0.00 | 0.00 | 0.00 | 73 | 1008.8 |
| 20260507084911 | 69 | 112 | 9.0 | 11.0 | 0.00 | 0.00 | 0.00 | 74 | 1008.8 |
| 20260507084710 | 69 | 68 | 14.0 | 15.0 | 0.00 | 0.00 | 0.00 | 72 | 1008.8 |
| 20260507084510 | 69 | 68 | 13.0 | 15.0 | 0.00 | 0.00 | 0.00 | 75 | 1008.8 |
| 20260507084259 | 69 | 112 | 15.0 | 16.0 | 0.00 | 0.00 | 0.00 | 73 | 1008.8 |
| 20260507084058 | 69 | 90 | 14.0 | 15.0 | 0.00 | 0.00 | 0.00 | 73 | 1008.8 |
| 20260507083858 | 69 | 90 | 9.0 | 10.0 | 0.00 | 0.00 | 0.00 | 73 | 1008.8 |
| 20260507083647 | 69 | 112 | 9.0 | 10.0 | 0.00 | 0.00 | 0.00 | 73 | 1008.8 |
| 20260507083446 | 69 | 112 | 10.0 | 10.0 | 0.00 | 0.00 | 0.00 | 74 | 1008.8 |
| 20260507083246 | 69 | 68 | 10.0 | 13.0 | 0.00 | 0.00 | 0.00 | 73 | 1008.8 |
| 20260507083035 | 69 | 68 | 12.0 | 13.0 | 0.00 | 0.00 | 0.00 | 75 | 1008.8 |
| 20260507082834 | 69 | 45 | 9.0 | 9.0 | 0.00 | 0.00 | 0.00 | 75 | 1008.8 |
| 20260507082634 | 69 | 68 | 12.0 | 14.0 | 0.00 | 0.00 | 0.00 | 74 | 1008.8 |
| 20260507082423 | 69 | 68 | 12.0 | 13.0 | 0.00 | 0.00 | 0.00 | 73 | 1008.8 |
| 20260507082223 | 69 | 90 | 14.0 | 15.0 | 0.00 | 0.00 | 0.00 | 74 | 1008.8 |
| 20260507082022 | 69 | 90 | 11.0 | 11.0 | 0.00 | 0.00 | 0.00 | 74 | 1008.8 |
| 20260507081811 | 69 | 68 | 14.0 | 15.0 | 0.00 | 0.00 | 0.00 | 73 | 1008.8 |
| 20260507081610 | 69 | 68 | 11.0 | 12.0 | 0.00 | 0.00 | 0.00 | 75 | 1008.8 |
| 20260507081410 | 69 | 68 | 11.0 | 12.0 | 0.00 | 0.00 | 0.00 | 74 | 1008.8 |
| 20260507081159 | 69 | 90 | 9.0 | 10.0 | 0.00 | 0.00 | 0.00 | 74 | 1008.8 |
| 20260507080958 | 70 | 90 | 9.0 | 10.0 | 0.00 | 0.00 | 0.00 | 72 | 1008.8 |
| 20260507080758 | 70 | 112 | 9.0 | 10.0 | 0.00 | 0.00 | 0.00 | 70 | 1008.8 |
| 20260507080547 | 69 | 90 | 5.0 | 5.0 | 0.00 | 0.00 | 0.00 | 73 | 1008.8 |
| 20260507080346 | 69 | 112 | 9.0 | 10.0 | 0.00 | 0.00 | 0.00 | 71 | 1008.8 |
| 20260507080146 | 69 | 90 | 7.0 | 8.0 | 0.00 | 0.00 | 0.00 | 71 | 1008.8 |
| 20260507075935 | 69 | 90 | 6.0 | 6.0 | 0.00 | 0.00 | 0.00 | 71 | 1008.8 |
| 20260507075734 | 69 | 90 | 10.0 | 11.0 | 0.00 | 0.00 | 0.00 | 74 | 1008.8 |
| 20260507075534 | 69 | 68 | 7.0 | 7.0 | 0.00 | 0.00 | 0.00 | 74 | 1008.8 |
| 20260507075323 | 69 | 68 | 11.0 | 13.0 | 0.00 | 0.00 | 0.00 | 74 | 1008.8 |
| 20260507075122 | 69 | 68 | 9.0 | 12.0 | 0.00 | 0.00 | 0.00 | 75 | 1008.8 |
| 20260507074923 | 69 | 112 | 7.0 | 7.0 | 0.00 | 0.00 | 0.00 | 75 | 1008.8 |
| 20260507074711 | 69 | 112 | 9.0 | 11.0 | 0.00 | 0.00 | 0.00 | 74 | 1008.8 |
| 20260507074510 | 69 | 90 | 9.0 | 9.0 | 0.00 | 0.00 | 0.00 | 76 | 1009.8 |
| 20260507074310 | 69 | 68 | 8.0 | 8.0 | 0.00 | 0.00 | 0.00 | 77 | 1009.8 |
| 20260507074059 | 69 | 68 | 9.0 | 11.0 | 0.00 | 0.00 | 0.00 | 76 | 1009.8 |
| 20260507073858 | 69 | 68 | 8.0 | 9.0 | 0.00 | 0.00 | 0.00 | 76 | 1009.8 |
| 20260507073658 | 69 | 22 | 8.0 | 9.0 | 0.00 | 0.00 | 0.00 | 75 | 1009.8 |
| 20260507073447 | 68 | 112 | 9.0 | 10.0 | 0.00 | 0.00 | 0.00 | 77 | 1009.8 |
| 20260507073246 | 68 | 68 | 11.0 | 12.0 | 0.00 | 0.00 | 0.00 | 77 | 1009.8 |
| 20260507073046 | 68 | 68 | 11.0 | 12.0 | 0.00 | 0.00 | 0.00 | 75 | 1009.8 |
| 20260507072835 | 68 | 90 | 10.0 | 10.0 | 0.00 | 0.00 | 0.00 | 76 | 1009.8 |
| 20260507072634 | 68 | 68 | 7.0 | 8.0 | 0.00 | 0.00 | 0.00 | 78 | 1009.8 |
| 20260507072434 | 68 | 68 | 10.0 | 10.0 | 0.00 | 0.00 | 0.00 | 78 | 1009.8 |
| 20260507072223 | 68 | 68 | 11.0 | 12.0 | 0.00 | 0.00 | 0.00 | 78 | 1009.8 |
| 20260507072022 | 68 | 68 | 9.0 | 9.0 | 0.00 | 0.00 | 0.00 | 77 | 1009.8 |
| 20260507071822 | 68 | 90 | 9.0 | 10.0 | 0.00 | 0.00 | 0.00 | 76 | 1009.8 |
| 20260507071611 | 68 | 68 | 10.0 | 10.0 | 0.00 | 0.00 | 0.00 | 78 | 1009.8 |
| 20260507071410 | 68 | 68 | 10.0 | 11.0 | 0.00 | 0.00 | 0.00 | 78 | 1008.8 |
| 20260507071210 | 68 | 90 | 8.0 | 9.0 | 0.00 | 0.00 | 0.00 | 78 | 1008.8 |
| 20260507070959 | 68 | 68 | 8.0 | 9.0 | 0.00 | 0.00 | 0.00 | 78 | 1008.8 |
| 20260507070759 | 68 | 68 | 9.0 | 10.0 | 0.00 | 0.00 | 0.00 | 78 | 1008.8 |
| 20260507070558 | 68 | 90 | 7.0 | 8.0 | 0.00 | 0.00 | 0.00 | 78 | 1008.8 |
| 20260507070347 | 68 | 68 | 11.0 | 12.0 | 0.00 | 0.00 | 0.00 | 79 | 1008.8 |
| 20260507070146 | 68 | 68 | 9.0 | 9.0 | 0.00 | 0.00 | 0.00 | 79 | 1009.8 |
| 20260507065946 | 68 | 90 | 8.0 | 9.0 | 0.00 | 0.00 | 0.00 | 80 | 1009.8 |
| 20260507065735 | 68 | 68 | 9.0 | 10.0 | 0.00 | 0.00 | 0.00 | 79 | 1009.8 |
| 20260507065534 | 68 | 68 | 13.0 | 15.0 | 0.00 | 0.00 | 0.00 | 78 | 1009.8 |
| 20260507065334 | 68 | 45 | 9.0 | 9.0 | 0.00 | 0.00 | 0.00 | 79 | 1009.8 |
| 20260507065123 | 68 | 90 | 5.0 | 5.0 | 0.00 | 0.00 | 0.00 | 80 | 1009.8 |
| 20260507064922 | 68 | 68 | 7.0 | 8.0 | 0.00 | 0.00 | 0.00 | 80 | 1008.8 |
| 20260507064722 | 67 | 68 | 10.0 | 10.0 | 0.00 | 0.00 | 0.00 | 80 | 1008.8 |
| 20260507064511 | 67 | 68 | 8.0 | 8.0 | 0.00 | 0.00 | 0.00 | 80 | 1008.8 |
| 20260507064310 | 67 | 68 | 6.0 | 6.0 | 0.00 | 0.00 | 0.00 | 80 | 1008.8 |
| 20260507064110 | 67 | 112 | 7.0 | 7.0 | 0.00 | 0.00 | 0.00 | 80 | 1008.8 |
| 20260507063859 | 67 | 68 | 9.0 | 10.0 | 0.00 | 0.00 | 0.00 | 81 | 1008.8 |
| 20260507063658 | 67 | 22 | 7.0 | 8.0 | 0.00 | 0.00 | 0.00 | 80 | 1008.8 |
| 20260507063458 | 67 | 68 | 8.0 | 9.0 | 0.00 | 0.00 | 0.00 | 80 | 1008.8 |
| 20260507063247 | 67 | 90 | 7.0 | 8.0 | 0.00 | 0.00 | 0.00 | 81 | 1008.8 |
| 20260507063046 | 67 | 45 | 9.0 | 9.0 | 0.00 | 0.00 | 0.00 | 81 | 1009.8 |
| 20260507062846 | 67 | 90 | 9.0 | 10.0 | 0.00 | 0.00 | 0.00 | 81 | 1009.8 |
| 20260507062635 | 67 | 68 | 8.0 | 8.0 | 0.00 | 0.00 | 0.00 | 82 | 1009.8 |
| 20260507062434 | 67 | 68 | 10.0 | 10.0 | 0.00 | 0.00 | 0.00 | 81 | 1009.8 |
| 20260507062234 | 67 | 90 | 8.0 | 9.0 | 0.00 | 0.00 | 0.00 | 81 | 1009.8 |
| 20260507062023 | 67 | 68 | 10.0 | 11.0 | 0.00 | 0.00 | 0.00 | 81 | 1009.8 |
| 20260507061822 | 67 | 68 | 9.0 | 10.0 | 0.00 | 0.00 | 0.00 | 82 | 1008.8 |
| 20260507061622 | 67 | 90 | 8.0 | 9.0 | 0.00 | 0.00 | 0.00 | 82 | 1008.8 |
| 20260507061411 | 67 | 68 | 9.0 | 10.0 | 0.00 | 0.00 | 0.00 | 83 | 1008.8 |
| 20260507061210 | 67 | 45 | 6.0 | 6.0 | 0.00 | 0.00 | 0.00 | 84 | 1008.8 |
| 20260507061010 | 67 | 45 | 9.0 | 11.0 | 0.00 | 0.00 | 0.00 | 84 | 1008.8 |
| 20260507060759 | 67 | 68 | 10.0 | 10.0 | 0.00 | 0.00 | 0.00 | 84 | 1008.8 |
| 20260507060558 | 67 | 68 | 9.0 | 11.0 | 0.00 | 0.00 | 0.00 | 84 | 1008.8 |
| 20260507060358 | 66 | 68 | 8.0 | 8.0 | 0.00 | 0.00 | 0.00 | 84 | 1008.8 |
| 20260507060147 | 66 | 45 | 9.0 | 10.0 | 0.00 | 0.00 | 0.00 | 86 | 1008.8 |
| 20260507055946 | 66 | 68 | 8.0 | 10.0 | 0.00 | 0.00 | 0.00 | 86 | 1009.8 |
| 20260507055746 | 66 | 68 | 5.0 | 5.0 | 0.00 | 0.00 | 0.00 | 87 | 1009.8 |
| 20260507055535 | 66 | 68 | 6.0 | 7.0 | 0.00 | 0.00 | 0.00 | 87 | 1009.8 |
| 20260507055334 | 66 | 68 | 8.0 | 9.0 | 0.00 | 0.00 | 0.00 | 88 | 1009.8 |
| 20260507055134 | 66 | 68 | 8.0 | 8.0 | 0.00 | 0.00 | 0.00 | 88 | 1009.8 |
| 20260507054923 | 66 | 68 | 7.0 | 7.0 | 0.00 | 0.00 | 0.00 | 88 | 1009.8 |
| 20260507054722 | 66 | 68 | 7.0 | 8.0 | 0.00 | 0.00 | 0.00 | 88 | 1009.8 |
| 20260507054522 | 65 | 68 | 5.0 | 5.0 | 0.00 | 0.00 | 0.00 | 89 | 1009.8 |
| 20260507054311 | 65 | 68 | 8.0 | 8.0 | 0.00 | 0.00 | 0.00 | 89 | 1009.8 |
| 20260507054110 | 65 | 90 | 7.0 | 8.0 | 0.00 | 0.00 | 0.00 | 89 | 1009.8 |
| 20260507053910 | 65 | 68 | 7.0 | 8.0 | 0.00 | 0.00 | 0.00 | 90 | 1009.8 |
| 20260507053659 | 65 | 68 | 6.0 | 7.0 | 0.00 | 0.00 | 0.00 | 89 | 1009.8 |
| 20260507053458 | 65 | 68 | 5.0 | 5.0 | 0.00 | 0.00 | 0.00 | 90 | 1009.8 |
| 20260507053258 | 65 | 68 | 8.0 | 8.0 | 0.00 | 0.00 | 0.00 | 91 | 1009.8 |
| 20260507053047 | 65 | 45 | 7.0 | 8.0 | 0.00 | 0.00 | 0.00 | 90 | 1009.8 |
| 20260507052846 | 65 | 68 | 6.0 | 6.0 | 0.00 | 0.00 | 0.00 | 91 | 1009.8 |
| 20260507052646 | 65 | 0 | 8.0 | 9.0 | 0.00 | 0.00 | 0.00 | 91 | 1009.8 |
| 20260507052435 | 65 | 68 | 7.0 | 7.0 | 0.00 | 0.00 | 0.00 | 91 | 1009.8 |
| 20260507052234 | 65 | 68 | 8.0 | 8.0 | 0.00 | 0.00 | 0.00 | 92 | 1009.8 |
| 20260507052034 | 65 | 68 | 6.0 | 6.0 | 0.00 | 0.00 | 0.00 | 92 | 1009.8 |
| 20260507051823 | 65 | 68 | 8.0 | 8.0 | 0.00 | 0.00 | 0.00 | 92 | 1009.8 |
| 20260507051622 | 64 | 68 | 5.0 | 5.0 | 0.00 | 0.00 | 0.00 | 92 | 1008.8 |
| 20260507051422 | 64 | 68 | 6.0 | 6.0 | 0.00 | 0.00 | 0.00 | 92 | 1008.8 |
| 20260507051211 | 64 | 68 | 7.0 | 7.0 | 0.00 | 0.00 | 0.00 | 92 | 1008.8 |
| 20260507051010 | 64 | 45 | 9.0 | 10.0 | 0.00 | 0.00 | 0.00 | 92 | 1008.8 |
| 20260507050810 | 64 | 68 | 6.0 | 6.0 | 0.00 | 0.00 | 0.00 | 92 | 1008.8 |
| 20260507050611 | 64 | 68 | 6.0 | 6.0 | 0.00 | 0.00 | 0.00 | 92 | 1008.8 |
| 20260507050410 | 64 | 45 | 6.0 | 6.0 | 0.00 | 0.00 | 0.00 | 92 | 1008.8 |
| 20260507050210 | 64 | 45 | 5.0 | 5.0 | 0.00 | 0.00 | 0.00 | 92 | 1008.8 |
| 20260507045959 | 64 | 68 | 7.0 | 7.0 | 0.00 | 0.00 | 0.00 | 92 | 1008.8 |
| 20260507045758 | 64 | 68 | 8.0 | 8.0 | 0.00 | 0.00 | 0.00 | 93 | 1008.8 |
| 20260507045558 | 64 | 68 | 8.0 | 8.0 | 0.00 | 0.00 | 0.00 | 93 | 1008.8 |
| 20260507045347 | 64 | 45 | 6.0 | 6.0 | 0.00 | 0.00 | 0.00 | 93 | 1008.8 |
| 20260507045146 | 64 | 68 | 7.0 | 7.0 | 0.00 | 0.00 | 0.00 | 93 | 1008.8 |
| 20260507044946 | 64 | 68 | 7.0 | 7.0 | 0.00 | 0.00 | 0.00 | 93 | 1008.8 |
| 20260507044747 | 64 | 68 | 5.0 | 5.0 | 0.00 | 0.00 | 0.00 | 93 | 1008.8 |
| 20260507044546 | 64 | 68 | 8.0 | 9.0 | 0.00 | 0.00 | 0.00 | 93 | 1009.8 |
| 20260507044346 | 64 | 68 | 5.0 | 5.0 | 0.00 | 0.00 | 0.00 | 94 | 1009.8 |
| 20260507044135 | 64 | 68 | 5.0 | 5.0 | 0.00 | 0.00 | 0.00 | 94 | 1009.8 |
| 20260507043934 | 63 | 68 | 6.0 | 6.0 | 0.00 | 0.00 | 0.00 | 94 | 1009.8 |
| 20260507043734 | 63 | 68 | 5.0 | 5.0 | 0.00 | 0.00 | 0.00 | 94 | 1009.8 |
| 20260507043523 | 63 | 22 | 5.0 | 5.0 | 0.00 | 0.00 | 0.00 | 94 | 1009.8 |
| 20260507043322 | 63 | 68 | 5.0 | 5.0 | 0.00 | 0.00 | 0.00 | 94 | 1008.8 |
| 20260507043122 | 63 | 45 | 6.0 | 6.0 | 0.00 | 0.00 | 0.00 | 94 | 1008.8 |
| 20260507042911 | 63 | 45 | 5.0 | 5.0 | 0.00 | 0.00 | 0.00 | 94 | 1008.8 |
| 20260507042710 | 63 | 68 | 4.0 | 4.0 | 0.00 | 0.00 | 0.00 | 94 | 1008.8 |
| 20260507042510 | 63 | 68 | 5.0 | 5.0 | 0.00 | 0.00 | 0.00 | 95 | 1008.8 |
| 20260507042259 | 63 | 45 | 6.0 | 7.0 | 0.00 | 0.00 | 0.00 | 95 | 1008.8 |
| 20260507042058 | 63 | 45 | 6.0 | 6.0 | 0.00 | 0.00 | 0.00 | 95 | 1008.8 |
| 20260507041858 | 63 | 22 | 5.0 | 5.0 | 0.00 | 0.00 | 0.00 | 95 | 1008.8 |
| 20260507041659 | 63 | 68 | 5.0 | 5.0 | 0.00 | 0.00 | 0.00 | 95 | 1008.8 |
| 20260507041458 | 63 | 68 | 5.0 | 5.0 | 0.00 | 0.00 | 0.00 | 95 | 1008.8 |
| 20260507041258 | 63 | 22 | 6.0 | 6.0 | 0.00 | 0.00 | 0.00 | 95 | 1008.8 |
| 20260507041059 | 63 | 68 | 5.0 | 5.0 | 0.00 | 0.00 | 0.00 | 95 | 1008.8 |
| 20260507040858 | 63 | 68 | 6.0 | 6.0 | 0.00 | 0.00 | 0.00 | 95 | 1008.8 |
| 20260507040658 | 63 | 68 | 7.0 | 8.0 | 0.00 | 0.00 | 0.00 | 95 | 1008.8 |
| 20260507040459 | 63 | 68 | 6.0 | 6.0 | 0.00 | 0.00 | 0.00 | 95 | 1008.8 |
| 20260507040258 | 63 | 45 | 5.0 | 5.0 | 0.00 | 0.00 | 0.00 | 95 | 1009.8 |
| 20260507040058 | 63 | 68 | 7.0 | 7.0 | 0.00 | 0.00 | 0.00 | 95 | 1009.8 |
| 20260507035859 | 63 | 68 | 8.0 | 9.0 | 0.00 | 0.00 | 0.00 | 95 | 1009.8 |
| 20260507035658 | 63 | 68 | 6.0 | 6.0 | 0.00 | 0.00 | 0.00 | 95 | 1009.8 |
| 20260507035458 | 63 | 45 | 6.0 | 7.0 | 0.00 | 0.00 | 0.00 | 95 | 1009.8 |
| 20260507035247 | 63 | 68 | 7.0 | 8.0 | 0.00 | 0.00 | 0.00 | 95 | 1009.8 |
| 20260507035046 | 63 | 45 | 5.0 | 5.0 | 0.00 | 0.00 | 0.00 | 95 | 1009.8 |
| 20260507034846 | 63 | 45 | 7.0 | 8.0 | 0.00 | 0.00 | 0.00 | 95 | 1009.8 |
| 20260507034635 | 63 | 68 | 7.0 | 7.0 | 0.00 | 0.00 | 0.00 | 95 | 1009.8 |
| 20260507034434 | 63 | 22 | 6.0 | 6.0 | 0.00 | 0.00 | 0.00 | 95 | 1009.8 |
| 20260507034234 | 63 | 22 | 5.0 | 5.0 | 0.00 | 0.00 | 0.00 | 95 | 1009.8 |
| 20260507034035 | 63 | 45 | 7.0 | 7.0 | 0.00 | 0.00 | 0.00 | 95 | 1009.8 |
| 20260507033834 | 63 | 45 | 6.0 | 6.0 | 0.00 | 0.00 | 0.00 | 95 | 1009.8 |
| 20260507033634 | 63 | 68 | 6.0 | 6.0 | 0.00 | 0.00 | 0.00 | 95 | 1009.8 |
| 20260507033423 | 63 | 45 | 7.0 | 8.0 | 0.00 | 0.00 | 0.00 | 95 | 1009.8 |
| 20260507033222 | 63 | 68 | 8.0 | 8.0 | 0.00 | 0.00 | 0.00 | 95 | 1009.8 |
| 20260507033022 | 63 | 68 | 6.0 | 6.0 | 0.00 | 0.00 | 0.00 | 95 | 1009.8 |
| 20260507032823 | 63 | 45 | 6.0 | 6.0 | 0.00 | 0.00 | 0.00 | 95 | 1009.8 |
| 20260507032622 | 63 | 68 | 5.0 | 6.0 | 0.00 | 0.00 | 0.00 | 95 | 1009.8 |
| 20260507032422 | 63 | 45 | 6.0 | 6.0 | 0.00 | 0.00 | 0.00 | 95 | 1009.8 |
| 20260507032223 | 63 | 45 | 6.0 | 6.0 | 0.00 | 0.00 | 0.00 | 95 | 1009.8 |
| 20260507032022 | 63 | 45 | 8.0 | 8.0 | 0.00 | 0.00 | 0.00 | 95 | 1009.8 |
| 20260507031822 | 63 | 68 | 5.0 | 5.0 | 0.00 | 0.00 | 0.00 | 95 | 1009.8 |
| 20260507031611 | 63 | 45 | 7.0 | 7.0 | 0.00 | 0.00 | 0.00 | 95 | 1009.8 |
| 20260507031410 | 63 | 45 | 5.0 | 5.0 | 0.00 | 0.00 | 0.00 | 95 | 1009.8 |
| 20260507031210 | 63 | 45 | 6.0 | 6.0 | 0.00 | 0.00 | 0.00 | 95 | 1009.8 |
| 20260507030959 | 63 | 68 | 5.0 | 6.0 | 0.00 | 0.00 | 0.00 | 95 | 1009.8 |
| 20260507030758 | 63 | 68 | 4.0 | 5.0 | 0.00 | 0.00 | 0.00 | 95 | 1009.8 |
| 20260507030558 | 63 | 68 | 2.0 | 2.0 | 0.00 | 0.00 | 0.00 | 95 | 1009.8 |
| 20260507030358 | 63 | 45 | 5.0 | 5.0 | 0.00 | 0.00 | 0.00 | 95 | 1009.8 |
| 20260507025946 | 63 | 68 | 5.0 | 5.0 | 0.00 | 0.00 | 0.00 | 95 | 1009.8 |
| 20260507025747 | 63 | 68 | 5.0 | 5.0 | 0.00 | 0.00 | 0.00 | 95 | 1009.8 |
| 20260507025546 | 63 | 45 | 5.0 | 5.0 | 0.00 | 0.00 | 0.00 | 95 | 1009.8 |
| 20260507025346 | 63 | 22 | 5.0 | 5.0 | 0.00 | 0.00 | 0.00 | 95 | 1009.8 |
| 20260507025135 | 63 | 45 | 4.0 | 5.0 | 0.00 | 0.00 | 0.00 | 95 | 1009.8 |
| 20260507024934 | 63 | 68 | 5.0 | 5.0 | 0.00 | 0.00 | 0.00 | 95 | 1009.8 |
| 20260507024734 | 63 | 68 | 5.0 | 5.0 | 0.00 | 0.00 | 0.00 | 95 | 1009.8 |
| 20260507024535 | 63 | 68 | 6.0 | 6.0 | 0.00 | 0.00 | 0.00 | 95 | 1009.8 |
| 20260507024334 | 63 | 338 | 6.0 | 6.0 | 0.00 | 0.00 | 0.00 | 95 | 1009.8 |
| 20260507024134 | 63 | 45 | 3.0 | 3.0 | 0.00 | 0.00 | 0.00 | 95 | 1009.8 |
| 20260507023935 | 63 | 22 | 5.0 | 5.0 | 0.00 | 0.00 | 0.00 | 95 | 1009.8 |
| 20260507023734 | 63 | 22 | 3.0 | 4.0 | 0.00 | 0.00 | 0.00 | 95 | 1009.8 |
| 20260507023534 | 63 | 68 | 6.0 | 6.0 | 0.00 | 0.00 | 0.00 | 95 | 1009.8 |
| 20260507023335 | 63 | 45 | 5.0 | 5.0 | 0.00 | 0.00 | 0.00 | 95 | 1009.8 |
| 20260507023134 | 63 | 68 | 5.0 | 5.0 | 0.00 | 0.00 | 0.00 | 95 | 1009.8 |
| 20260507022934 | 63 | 68 | 6.0 | 6.0 | 0.00 | 0.00 | 0.00 | 95 | 1009.8 |
| 20260507022723 | 63 | 45 | 6.0 | 6.0 | 0.00 | 0.00 | 0.00 | 95 | 1009.8 |
| 20260507022522 | 63 | 45 | 6.0 | 7.0 | 0.00 | 0.00 | 0.00 | 95 | 1009.8 |
| 20260507022322 | 63 | 45 | 5.0 | 5.0 | 0.00 | 0.00 | 0.00 | 95 | 1009.8 |
| 20260507022123 | 63 | 45 | 4.0 | 5.0 | 0.00 | 0.00 | 0.00 | 95 | 1009.8 |
| 20260507021922 | 63 | 22 | 4.0 | 4.0 | 0.00 | 0.00 | 0.00 | 95 | 1009.8 |
| 20260507021722 | 63 | 68 | 3.0 | 3.0 | 0.00 | 0.00 | 0.00 | 95 | 1009.8 |
| 20260507021523 | 63 | 45 | 5.0 | 5.0 | 0.00 | 0.00 | 0.00 | 95 | 1009.8 |
| 20260507021322 | 63 | 22 | 3.0 | 3.0 | 0.00 | 0.00 | 0.00 | 95 | 1009.8 |
| 20260507021122 | 63 | 68 | 2.0 | 2.0 | 0.00 | 0.00 | 0.00 | 95 | 1009.8 |
| 20260507020923 | 63 | 68 | 5.0 | 5.0 | 0.00 | 0.00 | 0.00 | 95 | 1009.8 |
| 20260507020722 | 63 | 68 | 3.0 | 3.0 | 0.00 | 0.00 | 0.00 | 95 | 1009.8 |
| 20260507020522 | 63 | 68 | 5.0 | 5.0 | 0.00 | 0.00 | 0.00 | 95 | 1009.8 |
| 20260507020323 | 63 | 90 | 5.0 | 5.0 | 0.00 | 0.00 | 0.00 | 95 | 1009.8 |
| 20260507020122 | 63 | 68 | 4.0 | 5.0 | 0.00 | 0.00 | 0.00 | 95 | 1008.8 |
| 20260507015922 | 63 | 45 | 5.0 | 5.0 | 0.00 | 0.00 | 0.00 | 95 | 1008.8 |
| 20260507015723 | 63 | 22 | 5.0 | 5.0 | 0.00 | 0.00 | 0.00 | 95 | 1008.8 |
| 20260507015522 | 63 | 45 | 6.0 | 7.0 | 0.00 | 0.00 | 0.00 | 95 | 1008.8 |
| 20260507015322 | 63 | 68 | 8.0 | 8.0 | 0.00 | 0.00 | 0.00 | 95 | 1008.8 |
| 20260507015123 | 63 | 45 | 8.0 | 8.0 | 0.00 | 0.00 | 0.00 | 95 | 1008.8 |
| 20260507014922 | 63 | 22 | 7.0 | 8.0 | 0.00 | 0.00 | 0.00 | 95 | 1008.8 |
| 20260507014722 | 63 | 22 | 8.0 | 10.0 | 0.00 | 0.00 | 0.00 | 95 | 1008.8 |
| 20260507014523 | 63 | 68 | 7.0 | 8.0 | 0.00 | 0.00 | 0.00 | 95 | 1008.8 |
| 20260507014322 | 63 | 22 | 7.0 | 7.0 | 0.00 | 0.00 | 0.00 | 95 | 1008.8 |
| 20260507014122 | 63 | 68 | 6.0 | 6.0 | 0.00 | 0.00 | 0.00 | 95 | 1008.8 |
| 20260507013923 | 63 | 338 | 5.0 | 5.0 | 0.00 | 0.00 | 0.00 | 95 | 1008.8 |
| 20260507013722 | 63 | 22 | 5.0 | 5.0 | 0.00 | 0.00 | 0.00 | 95 | 1008.8 |
| 20260507013522 | 63 | 45 | 5.0 | 5.0 | 0.00 | 0.00 | 0.00 | 95 | 1008.8 |
| 20260507013323 | 63 | 22 | 6.0 | 7.0 | 0.00 | 0.00 | 0.00 | 95 | 1008.8 |
| 20260507013122 | 63 | 22 | 5.0 | 5.0 | 0.00 | 0.00 | 0.00 | 95 | 1008.8 |
| 20260507012922 | 63 | 45 | 4.0 | 4.0 | 0.00 | 0.00 | 0.00 | 95 | 1008.8 |
| 20260507012723 | 63 | 45 | 3.0 | 3.0 | 0.00 | 0.00 | 0.00 | 95 | 1008.8 |
| 20260507012522 | 63 | 45 | 5.0 | 5.0 | 0.00 | 0.00 | 0.00 | 95 | 1008.8 |
| 20260507012322 | 63 | 68 | 5.0 | 5.0 | 0.00 | 0.00 | 0.00 | 95 | 1008.8 |
| 20260507012123 | 63 | 22 | 5.0 | 5.0 | 0.00 | 0.00 | 0.00 | 95 | 1008.8 |
| 20260507011922 | 63 | 68 | 5.0 | 5.0 | 0.00 | 0.00 | 0.00 | 95 | 1008.8 |
| 20260507011722 | 63 | 45 | 7.0 | 8.0 | 0.00 | 0.00 | 0.00 | 95 | 1008.8 |
| 20260507011523 | 63 | 68 | 6.0 | 6.0 | 0.00 | 0.00 | 0.00 | 95 | 1008.8 |
| 20260507011322 | 63 | 22 | 3.0 | 3.0 | 0.00 | 0.00 | 0.00 | 95 | 1009.8 |
| 20260507011122 | 63 | 68 | 4.0 | 4.0 | 0.00 | 0.00 | 0.00 | 95 | 1009.8 |
| 20260507010923 | 63 | 22 | 6.0 | 6.0 | 0.00 | 0.00 | 0.00 | 95 | 1009.8 |
| 20260507010722 | 63 | 22 | 6.0 | 6.0 | 0.00 | 0.00 | 0.00 | 95 | 1009.8 |
| 20260507010522 | 63 | 22 | 8.0 | 8.0 | 0.00 | 0.00 | 0.00 | 95 | 1009.8 |
| 20260507010323 | 63 | 45 | 5.0 | 6.0 | 0.00 | 0.00 | 0.00 | 95 | 1009.8 |
| 20260507010122 | 63 | 45 | 5.0 | 5.0 | 0.00 | 0.00 | 0.00 | 95 | 1009.8 |
| 20260507005922 | 63 | 45 | 5.0 | 5.0 | 0.00 | 0.00 | 0.00 | 95 | 1009.8 |
| 20260507005723 | 63 | 45 | 6.0 | 6.0 | 0.00 | 0.00 | 0.00 | 95 | 1009.8 |
| 20260507005522 | 63 | 22 | 5.0 | 5.0 | 0.00 | 0.00 | 0.00 | 95 | 1009.8 |
| 20260507005322 | 63 | 45 | 5.0 | 5.0 | 0.00 | 0.00 | 0.00 | 95 | 1009.8 |
| 20260507005123 | 63 | 45 | 6.0 | 6.0 | 0.00 | 0.00 | 0.00 | 95 | 1009.8 |
| 20260507004922 | 63 | 90 | 4.0 | 4.0 | 0.00 | 0.00 | 0.00 | 95 | 1009.8 |
| 20260507004722 | 63 | 45 | 3.0 | 3.0 | 0.00 | 0.00 | 0.00 | 95 | 1009.8 |
| 20260507004523 | 63 | 22 | 7.0 | 8.0 | 0.00 | 0.00 | 0.00 | 95 | 1009.8 |
| 20260507004322 | 63 | 45 | 2.0 | 2.0 | 0.00 | 0.00 | 0.00 | 95 | 1009.8 |
| 20260507004122 | 63 | 0 | 0.0 | 0.0 | 0.00 | 0.00 | 0.00 | 95 | 1009.8 |
| 20260507003923 | 63 | 22 | 3.0 | 4.0 | 0.00 | 0.00 | 0.00 | 95 | 1009.8 |
| 20260507003722 | 63 | 22 | 5.0 | 5.0 | 0.00 | 0.00 | 0.00 | 95 | 1009.8 |
| 20260507003522 | 63 | 45 | 6.0 | 7.0 | 0.00 | 0.00 | 0.00 | 95 | 1009.8 |
| 20260507003323 | 63 | 68 | 4.0 | 5.0 | 0.00 | 0.00 | 0.00 | 95 | 1009.8 |
| 20260507003122 | 62 | 22 | 4.0 | 5.0 | 0.00 | 0.00 | 0.00 | 95 | 1009.8 |
| 20260507002922 | 62 | 22 | 5.0 | 5.0 | 0.00 | 0.00 | 0.00 | 95 | 1009.8 |
| 20260507002723 | 62 | 22 | 2.0 | 2.0 | 0.00 | 0.00 | 0.00 | 95 | 1009.8 |
| 20260507002522 | 62 | 22 | 4.0 | 5.0 | 0.00 | 0.00 | 0.00 | 95 | 1009.8 |
| 20260507002322 | 62 | 22 | 3.0 | 4.0 | 0.00 | 0.00 | 0.00 | 95 | 1009.8 |
| 20260507002123 | 62 | 22 | 3.0 | 3.0 | 0.00 | 0.00 | 0.00 | 95 | 1009.8 |
| 20260507001922 | 62 | 22 | 6.0 | 6.0 | 0.00 | 0.00 | 0.00 | 95 | 1009.8 |
| 20260507001722 | 62 | 22 | 4.0 | 5.0 | 0.00 | 0.00 | 0.00 | 95 | 1009.8 |
| 20260507001523 | 62 | 22 | 6.0 | 6.0 | 0.00 | 0.00 | 0.00 | 95 | 1009.8 |
| 20260507001322 | 62 | 45 | 4.0 | 5.0 | 0.00 | 0.00 | 0.00 | 95 | 1009.8 |
| 20260507001122 | 62 | 45 | 3.0 | 3.0 | 0.00 | 0.00 | 0.00 | 95 | 1009.8 |
| 20260507000923 | 62 | 68 | 5.0 | 5.0 | 0.00 | 0.00 | 0.00 | 95 | 1009.8 |
| 20260507000722 | 62 | 0 | 3.0 | 4.0 | 0.00 | 0.00 | 0.00 | 95 | 1009.8 |
| 20260507000522 | 62 | 338 | 0.0 | 0.0 | 0.00 | 0.00 | 0.00 | 95 | 1009.8 |
| 20260507000323 | 61 | 292 | 0.0 | 0.0 | 0.00 | 0.00 | 0.00 | 95 | 1009.8 |
| 20260507000122 | 61 | 315 | 2.0 | 2.0 | 0.00 | 0.00 | 0.00 | 95 | 1009.8 |
| 20260506235922 | 61 | 338 | 1.0 | 1.0 | 0.00 | 0.00 | 0.00 | 95 | 1009.8 |
| 20260506235723 | 61 | 338 | 2.0 | 2.0 | 0.00 | 0.00 | 0.00 | 95 | 1009.8 |
| 20260506235522 | 61 | 315 | 2.0 | 2.0 | 0.00 | 0.00 | 0.00 | 95 | 1009.8 |
| 20260506235322 | 61 | 338 | 0.0 | 0.0 | 0.00 | 0.00 | 0.00 | 95 | 1009.8 |
| 20260506235123 | 61 | 338 | 0.0 | 0.0 | 0.00 | 0.00 | 0.00 | 95 | 1009.8 |
| 20260506234922 | 61 | 338 | 0.0 | 0.0 | 0.00 | 0.00 | 0.00 | 95 | 1009.8 |
| 20260506234722 | 61 | 338 | 2.0 | 2.0 | 0.00 | 0.00 | 0.00 | 95 | 1009.8 |
| 20260506234523 | 61 | 338 | 2.0 | 2.0 | 0.00 | 0.00 | 0.00 | 95 | 1009.8 |
| 20260506234322 | 61 | 338 | 2.0 | 2.0 | 0.00 | 0.00 | 0.00 | 95 | 1009.8 |
| 20260506234122 | 61 | 338 | 1.0 | 1.0 | 0.00 | 0.00 | 0.00 | 95 | 1009.8 |
| 20260506233923 | 61 | 338 | 2.0 | 2.0 | 0.00 | 0.00 | 0.00 | 95 | 1009.8 |
| 20260506233722 | 61 | 338 | 2.0 | 2.0 | 0.00 | 0.00 | 0.00 | 95 | 1009.8 |
| 20260506233522 | 61 | 338 | 1.0 | 1.0 | 0.00 | 0.00 | 0.00 | 95 | 1009.8 |
| 20260506233323 | 61 | 338 | 2.0 | 2.0 | 0.00 | 0.00 | 0.00 | 95 | 1009.8 |
| 20260506233122 | 61 | 338 | 1.0 | 1.0 | 0.00 | 0.00 | 0.00 | 94 | 1009.8 |
| 20260506232922 | 61 | 338 | 0.0 | 0.0 | 0.00 | 0.00 | 0.00 | 94 | 1009.8 |
| 20260506232723 | 61 | 338 | 0.0 | 0.0 | 0.00 | 0.00 | 0.00 | 94 | 1009.8 |
| 20260506232522 | 61 | 338 | 1.0 | 1.0 | 0.00 | 0.00 | 0.00 | 94 | 1009.8 |
| 20260506232322 | 61 | 338 | 2.0 | 2.0 | 0.00 | 0.00 | 0.00 | 94 | 1009.8 |
| 20260506232123 | 61 | 338 | 0.0 | 0.0 | 0.00 | 0.00 | 0.00 | 94 | 1009.8 |
| 20260506231922 | 61 | 338 | 2.0 | 2.0 | 0.00 | 0.00 | 0.00 | 95 | 1009.8 |
| 20260506231722 | 61 | 338 | 2.0 | 2.0 | 0.00 | 0.00 | 0.00 | 94 | 1009.8 |
| 20260506231523 | 61 | 338 | 2.0 | 2.0 | 0.00 | 0.00 | 0.00 | 94 | 1009.8 |
| 20260506231322 | 61 | 338 | 1.0 | 1.0 | 0.00 | 0.00 | 0.00 | 94 | 1010.8 |
| 20260506231122 | 61 | 338 | 1.0 | 1.0 | 0.00 | 0.00 | 0.00 | 94 | 1010.8 |
| 20260506230923 | 61 | 338 | 2.0 | 2.0 | 0.00 | 0.00 | 0.00 | 94 | 1010.8 |
| 20260506230722 | 61 | 338 | 2.0 | 2.0 | 0.00 | 0.00 | 0.00 | 94 | 1010.8 |
| 20260506230522 | 60 | 338 | 3.0 | 3.0 | 0.00 | 0.00 | 0.00 | 94 | 1010.8 |
| 20260506230323 | 60 | 338 | 0.0 | 0.0 | 0.00 | 0.00 | 0.00 | 94 | 1010.8 |
| 20260506230122 | 60 | 338 | 2.0 | 2.0 | 0.00 | 0.00 | 0.00 | 94 | 1010.8 |
| 20260506225922 | 60 | 338 | 0.0 | 0.0 | 0.00 | 0.00 | 0.00 | 94 | 1010.8 |
| 20260506225723 | 60 | 338 | 2.0 | 2.0 | 0.00 | 0.00 | 0.00 | 94 | 1010.8 |
| 20260506225522 | 60 | 338 | 2.0 | 2.0 | 0.00 | 0.00 | 0.00 | 94 | 1010.8 |
| 20260506225322 | 60 | 338 | 1.0 | 1.0 | 0.00 | 0.00 | 0.00 | 94 | 1010.8 |
| 20260506225123 | 60 | 338 | 0.0 | 0.0 | 0.00 | 0.00 | 0.00 | 94 | 1010.8 |
| 20260506224922 | 60 | 338 | 0.0 | 0.0 | 0.00 | 0.00 | 0.00 | 94 | 1010.8 |
| 20260506224722 | 60 | 338 | 3.0 | 3.0 | 0.00 | 0.00 | 0.00 | 94 | 1010.8 |
| 20260506224523 | 60 | 338 | 2.0 | 2.0 | 0.00 | 0.00 | 0.00 | 94 | 1010.8 |
| 20260506224322 | 60 | 338 | 1.0 | 1.0 | 0.00 | 0.00 | 0.00 | 94 | 1010.8 |
| 20260506224122 | 61 | 338 | 0.0 | 0.0 | 0.00 | 0.00 | 0.00 | 94 | 1010.8 |
| 20260506223923 | 61 | 338 | 1.0 | 1.0 | 0.00 | 0.00 | 0.00 | 94 | 1010.8 |
| 20260506223722 | 61 | 338 | 0.0 | 0.0 | 0.00 | 0.00 | 0.00 | 94 | 1010.8 |
| 20260506223522 | 61 | 338 | 1.0 | 1.0 | 0.00 | 0.00 | 0.00 | 94 | 1010.8 |
| 20260506223323 | 61 | 338 | 2.0 | 2.0 | 0.00 | 0.00 | 0.00 | 94 | 1010.8 |
| 20260506223122 | 61 | 338 | 2.0 | 2.0 | 0.00 | 0.00 | 0.00 | 94 | 1010.8 |
| 20260506222922 | 61 | 338 | 2.0 | 2.0 | 0.00 | 0.00 | 0.00 | 94 | 1010.8 |
| 20260506222723 | 61 | 338 | 2.0 | 2.0 | 0.00 | 0.00 | 0.00 | 94 | 1010.8 |
| 20260506222522 | 61 | 338 | 2.0 | 2.0 | 0.00 | 0.00 | 0.00 | 94 | 1010.8 |
| 20260506222322 | 61 | 338 | 3.0 | 3.0 | 0.00 | 0.00 | 0.00 | 94 | 1010.8 |
| 20260506222123 | 61 | 315 | 2.0 | 2.0 | 0.00 | 0.00 | 0.00 | 94 | 1010.8 |
| 20260506221922 | 61 | 315 | 2.0 | 2.0 | 0.00 | 0.00 | 0.00 | 94 | 1010.8 |
| 20260506221722 | 61 | 315 | 2.0 | 2.0 | 0.00 | 0.00 | 0.00 | 94 | 1010.8 |
| 20260506221523 | 61 | 315 | 2.0 | 2.0 | 0.00 | 0.00 | 0.00 | 93 | 1010.8 |
| 20260506221322 | 61 | 315 | 4.0 | 4.0 | 0.00 | 0.00 | 0.00 | 93 | 1010.8 |
| 20260506221122 | 61 | 315 | 2.0 | 2.0 | 0.00 | 0.00 | 0.00 | 93 | 1010.8 |
| 20260506220923 | 61 | 315 | 3.0 | 3.0 | 0.00 | 0.00 | 0.00 | 93 | 1010.8 |
| 20260506220722 | 62 | 315 | 2.0 | 2.0 | 0.00 | 0.00 | 0.00 | 93 | 1010.8 |
| 20260506220522 | 62 | 315 | 4.0 | 5.0 | 0.00 | 0.00 | 0.00 | 93 | 1010.8 |
| 20260506220323 | 62 | 315 | 5.0 | 5.0 | 0.00 | 0.00 | 0.00 | 93 | 1010.8 |
| 20260506220122 | 62 | 315 | 2.0 | 2.0 | 0.00 | 0.00 | 0.00 | 93 | 1010.8 |
| 20260506215922 | 62 | 315 | 3.0 | 3.0 | 0.00 | 0.00 | 0.00 | 93 | 1010.8 |
| 20260506215723 | 62 | 315 | 2.0 | 2.0 | 0.00 | 0.00 | 0.00 | 93 | 1010.8 |
| 20260506215522 | 62 | 315 | 4.0 | 4.0 | 0.00 | 0.00 | 0.00 | 93 | 1010.8 |
| 20260506215322 | 62 | 315 | 2.0 | 2.0 | 0.00 | 0.00 | 0.00 | 93 | 1010.8 |
| 20260506215123 | 62 | 292 | 1.0 | 1.0 | 0.00 | 0.00 | 0.00 | 93 | 1010.8 |
| 20260506214922 | 62 | 292 | 2.0 | 2.0 | 0.00 | 0.00 | 0.00 | 93 | 1010.8 |
| 20260506214722 | 62 | 292 | 2.0 | 2.0 | 0.00 | 0.00 | 0.00 | 93 | 1010.8 |
| 20260506214523 | 62 | 292 | 3.0 | 3.0 | 0.00 | 0.00 | 0.00 | 93 | 1010.8 |
| 20260506214322 | 62 | 315 | 3.0 | 3.0 | 0.00 | 0.00 | 0.00 | 93 | 1010.8 |
| 20260506214122 | 62 | 315 | 3.0 | 3.0 | 0.00 | 0.00 | 0.00 | 93 | 1010.8 |
| 20260506213923 | 62 | 315 | 3.0 | 4.0 | 0.00 | 0.00 | 0.00 | 93 | 1010.8 |
| 20260506213722 | 62 | 315 | 3.0 | 4.0 | 0.00 | 0.00 | 0.00 | 93 | 1010.8 |
| 20260506213522 | 62 | 338 | 2.0 | 2.0 | 0.00 | 0.00 | 0.00 | 93 | 1010.8 |
| 20260506213323 | 62 | 338 | 2.0 | 2.0 | 0.00 | 0.00 | 0.00 | 93 | 1010.8 |
| 20260506213122 | 62 | 338 | 2.0 | 2.0 | 0.00 | 0.00 | 0.00 | 93 | 1010.8 |
| 20260506212922 | 62 | 338 | 3.0 | 3.0 | 0.00 | 0.00 | 0.00 | 93 | 1010.8 |
| 20260506212723 | 62 | 338 | 2.0 | 2.0 | 0.00 | 0.00 | 0.00 | 93 | 1010.8 |
| 20260506212522 | 62 | 338 | 3.0 | 3.0 | 0.00 | 0.00 | 0.00 | 93 | 1010.8 |
| 20260506212322 | 62 | 338 | 3.0 | 3.0 | 0.00 | 0.00 | 0.00 | 93 | 1010.8 |
| 20260506212123 | 62 | 338 | 3.0 | 3.0 | 0.00 | 0.00 | 0.00 | 92 | 1010.8 |
| 20260506211922 | 63 | 338 | 2.0 | 2.0 | 0.00 | 0.00 | 0.00 | 92 | 1010.8 |
| 20260506211722 | 63 | 338 | 1.0 | 1.0 | 0.00 | 0.00 | 0.00 | 93 | 1010.8 |
| 20260506211523 | 63 | 338 | 2.0 | 2.0 | 0.00 | 0.00 | 0.00 | 93 | 1010.8 |
| 20260506211322 | 63 | 338 | 2.0 | 2.0 | 0.00 | 0.00 | 0.00 | 92 | 1010.8 |
| 20260506211122 | 63 | 338 | 1.0 | 1.0 | 0.00 | 0.00 | 0.00 | 93 | 1010.8 |
| 20260506210923 | 63 | 338 | 3.0 | 3.0 | 0.00 | 0.00 | 0.00 | 93 | 1010.8 |
| 20260506210722 | 63 | 338 | 0.0 | 0.0 | 0.00 | 0.00 | 0.00 | 93 | 1010.8 |
| 20260506210522 | 63 | 338 | 0.0 | 0.0 | 0.00 | 0.00 | 0.00 | 93 | 1010.8 |
| 20260506210323 | 63 | 338 | 0.0 | 0.0 | 0.00 | 0.00 | 0.00 | 93 | 1010.8 |
| 20260506210122 | 63 | 338 | 0.0 | 0.0 | 0.00 | 0.00 | 0.00 | 93 | 1010.8 |
| 20260506205922 | 63 | 338 | 0.0 | 0.0 | 0.00 | 0.00 | 0.00 | 93 | 1010.8 |
| 20260506205711 | 62 | 338 | 0.0 | 0.0 | 0.00 | 0.00 | 0.00 | 93 | 1010.8 |
| 20260506205458 | 62 | 338 | 0.0 | 0.0 | 0.00 | 0.00 | 0.00 | 92 | 1010.8 |
| 20260506205258 | 62 | 338 | 0.0 | 0.0 | 0.00 | 0.00 | 0.00 | 92 | 1010.8 |
| 20260506205059 | 62 | 68 | 2.0 | 2.0 | 0.00 | 0.00 | 0.00 | 92 | 1010.8 |
| 20260506204858 | 62 | 68 | 3.0 | 3.0 | 0.00 | 0.00 | 0.00 | 92 | 1009.8 |
| 20260506204658 | 62 | 68 | 2.0 | 2.0 | 0.00 | 0.00 | 0.00 | 92 | 1009.8 |
| 20260506204459 | 62 | 68 | 2.0 | 2.0 | 0.00 | 0.00 | 0.00 | 92 | 1009.8 |
| 20260506204258 | 63 | 68 | 0.0 | 0.0 | 0.00 | 0.00 | 0.00 | 92 | 1009.8 |
| 20260506204058 | 63 | 68 | 0.0 | 0.0 | 0.00 | 0.00 | 0.00 | 91 | 1009.8 |
| 20260506203847 | 63 | 68 | 0.0 | 0.0 | 0.00 | 0.00 | 0.00 | 92 | 1009.8 |
| 20260506203634 | 63 | 68 | 0.0 | 0.0 | 0.00 | 0.00 | 0.00 | 92 | 1009.8 |
| 20260506203422 | 63 | 68 | 1.0 | 1.0 | 0.00 | 0.00 | 0.00 | 92 | 1009.8 |
| 20260506203212 | 63 | 68 | 1.0 | 1.0 | 0.00 | 0.00 | 0.00 | 92 | 1009.8 |
| 20260506203010 | 63 | 90 | 2.0 | 2.0 | 0.00 | 0.00 | 0.00 | 92 | 1010.8 |
| 20260506202810 | 63 | 90 | 1.0 | 1.0 | 0.00 | 0.00 | 0.00 | 92 | 1010.8 |
| 20260506202611 | 63 | 90 | 3.0 | 3.0 | 0.00 | 0.00 | 0.00 | 92 | 1010.8 |
| 20260506202358 | 63 | 90 | 2.0 | 2.0 | 0.00 | 0.00 | 0.00 | 92 | 1010.8 |
| 20260506202146 | 63 | 90 | 0.0 | 0.0 | 0.00 | 0.00 | 0.00 | 92 | 1010.8 |
| 20260506201935 | 63 | 90 | 1.0 | 1.0 | 0.00 | 0.00 | 0.00 | 92 | 1010.8 |
| 20260506201722 | 63 | 90 | 0.0 | 0.0 | 0.00 | 0.00 | 0.00 | 92 | 1010.8 |
| 20260506201510 | 63 | 90 | 1.0 | 1.0 | 0.00 | 0.00 | 0.00 | 92 | 1010.8 |
| 20260506201311 | 63 | 68 | 2.0 | 2.0 | 0.00 | 0.00 | 0.00 | 92 | 1010.8 |
| 20260506201058 | 63 | 22 | 1.0 | 1.0 | 0.00 | 0.00 | 0.00 | 92 | 1010.8 |
| 20260506200846 | 63 | 22 | 1.0 | 1.0 | 0.00 | 0.00 | 0.00 | 92 | 1010.8 |
| 20260506200635 | 63 | 22 | 0.0 | 0.0 | 0.00 | 0.00 | 0.00 | 92 | 1010.8 |
| 20260506200422 | 63 | 22 | 2.0 | 2.0 | 0.00 | 0.00 | 0.00 | 92 | 1010.8 |
| 20260506200222 | 63 | 22 | 2.0 | 2.0 | 0.00 | 0.00 | 0.00 | 92 | 1010.8 |
| 20260506200019 | 63 | 22 | 0.0 | 0.0 | 0.00 | 0.00 | 0.00 | 92 | 1010.8 |
| 20260506195758 | 63 | 22 | 0.0 | 0.0 | 0.00 | 0.00 | 0.00 | 92 | 1009.8 |
| 20260506195546 | 63 | 22 | 1.0 | 1.0 | 0.00 | 0.00 | 0.00 | 92 | 1009.8 |
| 20260506195335 | 63 | 22 | 2.0 | 2.0 | 0.00 | 0.00 | 0.00 | 92 | 1009.8 |
| 20260506195122 | 63 | 22 | 2.0 | 2.0 | 0.00 | 0.00 | 0.00 | 92 | 1009.8 |
| 20260506194910 | 63 | 22 | 1.0 | 1.0 | 0.00 | 0.00 | 0.00 | 91 | 1009.8 |
| 20260506194711 | 63 | 22 | 2.0 | 2.0 | 0.00 | 0.00 | 0.00 | 91 | 1009.8 |
| 20260506194458 | 63 | 22 | 3.0 | 3.0 | 0.00 | 0.00 | 0.00 | 91 | 1009.8 |
| 20260506194246 | 63 | 22 | 3.0 | 4.0 | 0.00 | 0.00 | 0.00 | 91 | 1009.8 |
| 20260506194035 | 62 | 22 | 2.0 | 2.0 | 0.00 | 0.00 | 0.00 | 91 | 1009.8 |
| 20260506193822 | 62 | 68 | 3.0 | 3.0 | 0.00 | 0.00 | 0.00 | 91 | 1009.8 |
| 20260506193610 | 62 | 45 | 5.0 | 5.0 | 0.00 | 0.00 | 0.00 | 91 | 1009.8 |
| 20260506193359 | 62 | 68 | 5.0 | 5.0 | 0.00 | 0.00 | 0.00 | 91 | 1009.8 |
| 20260506193158 | 62 | 68 | 5.0 | 5.0 | 0.00 | 0.00 | 0.00 | 91 | 1010.8 |
| 20260506192946 | 62 | 68 | 6.0 | 6.0 | 0.00 | 0.00 | 0.00 | 91 | 1010.8 |
| 20260506192735 | 62 | 45 | 4.0 | 4.0 | 0.00 | 0.00 | 0.00 | 91 | 1010.8 |
| 20260506192522 | 62 | 45 | 2.0 | 2.0 | 0.00 | 0.00 | 0.00 | 92 | 1010.8 |
| 20260506192310 | 62 | 45 | 2.0 | 2.0 | 0.00 | 0.00 | 0.00 | 92 | 1010.8 |
| 20260506192111 | 62 | 45 | 2.0 | 2.0 | 0.00 | 0.00 | 0.00 | 92 | 1010.8 |
| 20260506191910 | 62 | 22 | 3.0 | 3.0 | 0.00 | 0.00 | 0.00 | 92 | 1010.8 |
| 20260506191710 | 62 | 22 | 3.0 | 3.0 | 0.00 | 0.00 | 0.00 | 92 | 1010.8 |
| 20260506191459 | 62 | 22 | 2.0 | 2.0 | 0.00 | 0.00 | 0.00 | 91 | 1010.8 |
| 20260506191246 | 62 | 22 | 2.0 | 2.0 | 0.00 | 0.00 | 0.00 | 91 | 1010.8 |
| 20260506191034 | 62 | 22 | 2.0 | 2.0 | 0.00 | 0.00 | 0.00 | 91 | 1010.8 |
| 20260506190823 | 62 | 45 | 2.0 | 2.0 | 0.00 | 0.00 | 0.00 | 91 | 1010.8 |
| 20260506190622 | 62 | 45 | 2.0 | 2.0 | 0.00 | 0.00 | 0.00 | 91 | 1010.8 |
| 20260506190422 | 62 | 45 | 3.0 | 3.0 | 0.00 | 0.00 | 0.00 | 91 | 1010.8 |
| 20260506190211 | 62 | 45 | 2.0 | 2.0 | 0.00 | 0.00 | 0.00 | 91 | 1010.8 |
| 20260506190010 | 62 | 45 | 2.0 | 2.0 | 0.00 | 0.00 | 0.00 | 91 | 1010.8 |
| 20260506185810 | 62 | 45 | 2.0 | 2.0 | 0.00 | 0.00 | 0.00 | 91 | 1010.8 |
| 20260506185559 | 62 | 45 | 0.0 | 0.0 | 0.00 | 0.00 | 0.00 | 91 | 1010.8 |
| 20260506185358 | 62 | 45 | 2.0 | 2.0 | 0.00 | 0.00 | 0.00 | 91 | 1010.8 |
| 20260506185146 | 62 | 45 | 3.0 | 3.0 | 0.00 | 0.00 | 0.00 | 91 | 1010.8 |
| 20260506184935 | 62 | 45 | 3.0 | 3.0 | 0.00 | 0.00 | 0.00 | 91 | 1010.8 |
| 20260506184734 | 62 | 45 | 2.0 | 2.0 | 0.00 | 0.00 | 0.00 | 91 | 1010.8 |
| 20260506184534 | 62 | 158 | 2.0 | 2.0 | 0.00 | 0.00 | 0.00 | 90 | 1010.8 |
| 20260506184323 | 62 | 158 | 1.0 | 1.0 | 0.00 | 0.00 | 0.00 | 90 | 1010.8 |
| 20260506184122 | 62 | 158 | 0.0 | 0.0 | 0.00 | 0.00 | 0.00 | 90 | 1010.8 |
| 20260506183922 | 62 | 158 | 0.0 | 0.0 | 0.00 | 0.00 | 0.00 | 90 | 1010.8 |
| 20260506183711 | 62 | 158 | 0.0 | 0.0 | 0.00 | 0.00 | 0.00 | 90 | 1010.8 |
| 20260506183510 | 62 | 158 | 1.0 | 1.0 | 0.00 | 0.00 | 0.00 | 90 | 1010.8 |
| 20260506183310 | 62 | 158 | 0.0 | 0.0 | 0.00 | 0.00 | 0.00 | 90 | 1010.8 |
| 20260506183059 | 62 | 158 | 0.0 | 0.0 | 0.00 | 0.00 | 0.00 | 89 | 1010.8 |
| 20260506182858 | 63 | 158 | 0.0 | 0.0 | 0.00 | 0.00 | 0.00 | 89 | 1010.8 |
| 20260506182658 | 63 | 158 | 0.0 | 0.0 | 0.00 | 0.00 | 0.00 | 89 | 1010.8 |
| 20260506182447 | 63 | 158 | 0.0 | 0.0 | 0.00 | 0.00 | 0.00 | 89 | 1010.8 |
| 20260506182246 | 63 | 158 | 0.0 | 0.0 | 0.00 | 0.00 | 0.00 | 89 | 1010.8 |
| 20260506182046 | 63 | 158 | 0.0 | 0.0 | 0.00 | 0.00 | 0.00 | 89 | 1010.8 |
| 20260506181835 | 63 | 158 | 0.0 | 0.0 | 0.00 | 0.00 | 0.00 | 89 | 1010.8 |
| 20260506181634 | 63 | 158 | 0.0 | 0.0 | 0.00 | 0.00 | 0.00 | 89 | 1010.8 |
| 20260506181434 | 63 | 158 | 0.0 | 0.0 | 0.00 | 0.00 | 0.00 | 89 | 1010.8 |
| 20260506181222 | 64 | 158 | 0.0 | 0.0 | 0.00 | 0.00 | 0.00 | 89 | 1010.8 |
| 20260506181022 | 64 | 158 | 0.0 | 0.0 | 0.00 | 0.00 | 0.00 | 88 | 1010.8 |
| 20260506180822 | 64 | 158 | 0.0 | 0.0 | 0.00 | 0.00 | 0.00 | 88 | 1010.8 |
| 20260506180611 | 64 | 158 | 0.0 | 0.0 | 0.00 | 0.00 | 0.00 | 88 | 1010.8 |
| 20260506180410 | 64 | 158 | 0.0 | 0.0 | 0.00 | 0.00 | 0.00 | 88 | 1010.8 |
| 20260506180210 | 64 | 158 | 1.0 | 1.0 | 0.00 | 0.00 | 0.00 | 88 | 1010.8 |
| 20260506175958 | 64 | 158 | 0.0 | 0.0 | 0.00 | 0.00 | 0.00 | 87 | 1010.8 |
| 20260506175758 | 64 | 158 | 0.0 | 0.0 | 0.00 | 0.00 | 0.00 | 87 | 1010.8 |
| 20260506175558 | 64 | 158 | 0.0 | 0.0 | 0.00 | 0.00 | 0.00 | 87 | 1010.8 |
| 20260506175347 | 64 | 158 | 0.0 | 0.0 | 0.00 | 0.00 | 0.00 | 87 | 1010.8 |
| 20260506175146 | 64 | 158 | 0.0 | 0.0 | 0.00 | 0.00 | 0.00 | 87 | 1010.8 |
| 20260506174946 | 65 | 158 | 0.0 | 0.0 | 0.00 | 0.00 | 0.00 | 87 | 1010.8 |
| 20260506174735 | 65 | 158 | 1.0 | 1.0 | 0.00 | 0.00 | 0.00 | 87 | 1010.8 |
| 20260506174534 | 65 | 158 | 2.0 | 2.0 | 0.00 | 0.00 | 0.00 | 87 | 1010.8 |
| 20260506174334 | 65 | 158 | 2.0 | 2.0 | 0.00 | 0.00 | 0.00 | 86 | 1010.8 |
| 20260506174123 | 65 | 135 | 2.0 | 2.0 | 0.00 | 0.00 | 0.00 | 86 | 1010.8 |
| 20260506173922 | 65 | 135 | 2.0 | 2.0 | 0.00 | 0.00 | 0.00 | 86 | 1010.8 |
| 20260506173722 | 65 | 158 | 2.0 | 2.0 | 0.00 | 0.00 | 0.00 | 86 | 1010.8 |
| 20260506173511 | 65 | 158 | 3.0 | 3.0 | 0.00 | 0.00 | 0.00 | 86 | 1010.8 |
| 20260506173310 | 65 | 158 | 2.0 | 2.0 | 0.00 | 0.00 | 0.00 | 85 | 1010.8 |
| 20260506173110 | 65 | 158 | 2.0 | 2.0 | 0.00 | 0.00 | 0.00 | 85 | 1010.8 |
| 20260506172859 | 65 | 158 | 3.0 | 3.0 | 0.00 | 0.00 | 0.00 | 85 | 1010.8 |
| 20260506172658 | 65 | 180 | 2.0 | 2.0 | 0.00 | 0.00 | 0.00 | 85 | 1010.8 |
| 20260506172458 | 65 | 180 | 3.0 | 3.0 | 0.00 | 0.00 | 0.00 | 85 | 1010.8 |
| 20260506172247 | 65 | 158 | 2.0 | 2.0 | 0.00 | 0.00 | 0.00 | 84 | 1010.8 |
| 20260506172046 | 66 | 158 | 3.0 | 4.0 | 0.00 | 0.00 | 0.00 | 84 | 1010.8 |
| 20260506171846 | 66 | 158 | 3.0 | 3.0 | 0.00 | 0.00 | 0.00 | 84 | 1010.8 |
| 20260506171635 | 66 | 158 | 3.0 | 3.0 | 0.00 | 0.00 | 0.00 | 84 | 1010.8 |
| 20260506171434 | 66 | 158 | 5.0 | 5.0 | 0.00 | 0.00 | 0.00 | 83 | 1010.8 |
| 20260506171234 | 66 | 158 | 5.0 | 5.0 | 0.00 | 0.00 | 0.00 | 83 | 1010.8 |
| 20260506171023 | 66 | 158 | 3.0 | 4.0 | 0.00 | 0.00 | 0.00 | 83 | 1010.8 |
| 20260506170822 | 66 | 158 | 2.0 | 2.0 | 0.00 | 0.00 | 0.00 | 83 | 1010.8 |
| 20260506170622 | 66 | 135 | 4.0 | 4.0 | 0.00 | 0.00 | 0.00 | 83 | 1010.8 |
| 20260506170410 | 66 | 135 | 5.0 | 5.0 | 0.00 | 0.00 | 0.00 | 83 | 1010.8 |
| 20260506170210 | 66 | 158 | 3.0 | 3.0 | 0.00 | 0.00 | 0.00 | 83 | 1010.8 |
| 20260506170010 | 66 | 135 | 3.0 | 4.0 | 0.00 | 0.00 | 0.00 | 83 | 1010.8 |
| 20260506165758 | 66 | 135 | 2.0 | 2.0 | 0.00 | 0.00 | 0.00 | 82 | 1010.8 |
| 20260506165558 | 67 | 135 | 4.0 | 4.0 | 0.00 | 0.00 | 0.00 | 82 | 1010.8 |
| 20260506165358 | 67 | 112 | 2.0 | 2.0 | 0.00 | 0.00 | 0.00 | 82 | 1010.8 |
| 20260506165146 | 67 | 135 | 6.0 | 6.0 | 0.00 | 0.00 | 0.00 | 82 | 1010.8 |
| 20260506164946 | 67 | 158 | 4.0 | 5.0 | 0.00 | 0.00 | 0.00 | 81 | 1010.8 |
| 20260506164746 | 67 | 112 | 3.0 | 4.0 | 0.00 | 0.00 | 0.00 | 81 | 1010.8 |
| 20260506164535 | 67 | 158 | 5.0 | 6.0 | 0.00 | 0.00 | 0.00 | 81 | 1010.8 |
| 20260506164334 | 67 | 112 | 2.0 | 2.0 | 0.00 | 0.00 | 0.00 | 81 | 1010.8 |
| 20260506164134 | 67 | 158 | 3.0 | 3.0 | 0.00 | 0.00 | 0.00 | 81 | 1010.8 |
| 20260506163922 | 67 | 112 | 5.0 | 5.0 | 0.00 | 0.00 | 0.00 | 81 | 1010.8 |
| 20260506163722 | 67 | 135 | 3.0 | 4.0 | 0.00 | 0.00 | 0.00 | 80 | 1010.8 |
| 20260506163522 | 67 | 135 | 5.0 | 6.0 | 0.00 | 0.00 | 0.00 | 80 | 1010.8 |
| 20260506163311 | 67 | 135 | 5.0 | 5.0 | 0.00 | 0.00 | 0.00 | 80 | 1010.8 |
| 20260506163110 | 67 | 135 | 6.0 | 6.0 | 0.00 | 0.00 | 0.00 | 79 | 1010.8 |
| 20260506162910 | 67 | 135 | 5.0 | 5.0 | 0.00 | 0.00 | 0.00 | 78 | 1010.8 |
| 20260506162658 | 67 | 158 | 5.0 | 5.0 | 0.00 | 0.00 | 0.00 | 78 | 1010.8 |
| 20260506162458 | 67 | 135 | 5.0 | 5.0 | 0.00 | 0.00 | 0.00 | 79 | 1010.8 |
| 20260506162258 | 67 | 158 | 6.0 | 7.0 | 0.00 | 0.00 | 0.00 | 79 | 1010.8 |
| 20260506162046 | 67 | 135 | 6.0 | 6.0 | 0.00 | 0.00 | 0.00 | 79 | 1010.8 |
| 20260506161846 | 67 | 135 | 6.0 | 6.0 | 0.00 | 0.00 | 0.00 | 79 | 1010.8 |
| 20260506161646 | 67 | 158 | 4.0 | 5.0 | 0.00 | 0.00 | 0.00 | 79 | 1010.8 |
| 20260506161435 | 67 | 135 | 5.0 | 6.0 | 0.00 | 0.00 | 0.00 | 79 | 1010.8 |
| 20260506161234 | 67 | 135 | 5.0 | 5.0 | 0.00 | 0.00 | 0.00 | 79 | 1010.8 |
| 20260506161034 | 68 | 112 | 6.0 | 6.0 | 0.00 | 0.00 | 0.00 | 79 | 1010.8 |
| 20260506160823 | 68 | 135 | 5.0 | 5.0 | 0.00 | 0.00 | 0.00 | 79 | 1010.8 |
| 20260506160622 | 68 | 112 | 5.0 | 5.0 | 0.00 | 0.00 | 0.00 | 78 | 1010.8 |
| 20260506160422 | 68 | 158 | 3.0 | 4.0 | 0.00 | 0.00 | 0.00 | 78 | 1010.8 |
| 20260506160211 | 68 | 112 | 7.0 | 8.0 | 0.00 | 0.00 | 0.00 | 77 | 1010.8 |
| 20260506160010 | 68 | 135 | 5.0 | 6.0 | 0.00 | 0.00 | 0.00 | 77 | 1010.8 |
| 20260506155810 | 69 | 112 | 5.0 | 5.0 | 0.00 | 0.00 | 0.00 | 77 | 1010.8 |
| 20260506155558 | 69 | 158 | 8.0 | 9.0 | 0.00 | 0.00 | 0.00 | 76 | 1010.8 |
| 20260506155358 | 69 | 158 | 6.0 | 6.0 | 0.00 | 0.00 | 0.00 | 77 | 1010.8 |
| 20260506155158 | 69 | 135 | 7.0 | 7.0 | 0.00 | 0.00 | 0.00 | 75 | 1010.8 |
| 20260506154946 | 69 | 135 | 6.0 | 6.0 | 0.00 | 0.00 | 0.00 | 77 | 1010.8 |
| 20260506154746 | 69 | 180 | 4.0 | 5.0 | 0.00 | 0.00 | 0.00 | 76 | 1010.8 |
| 20260506154546 | 69 | 135 | 5.0 | 6.0 | 0.00 | 0.00 | 0.00 | 77 | 1010.8 |
| 20260506154334 | 69 | 135 | 4.0 | 5.0 | 0.00 | 0.00 | 0.00 | 76 | 1010.8 |
| 20260506154134 | 69 | 135 | 6.0 | 6.0 | 0.00 | 0.00 | 0.00 | 76 | 1010.8 |
| 20260506153934 | 69 | 135 | 6.0 | 6.0 | 0.00 | 0.00 | 0.00 | 76 | 1010.8 |
| 20260506153723 | 69 | 158 | 6.0 | 6.0 | 0.00 | 0.00 | 0.00 | 75 | 1010.8 |
| 20260506153522 | 69 | 202 | 5.0 | 5.0 | 0.00 | 0.00 | 0.00 | 76 | 1010.8 |
| 20260506153322 | 69 | 135 | 5.0 | 5.0 | 0.00 | 0.00 | 0.00 | 75 | 1010.8 |
| 20260506153110 | 69 | 180 | 5.0 | 5.0 | 0.00 | 0.00 | 0.00 | 77 | 1010.8 |
| 20260506152910 | 69 | 180 | 6.0 | 6.0 | 0.00 | 0.00 | 0.00 | 76 | 1010.8 |
| 20260506152710 | 69 | 135 | 6.0 | 6.0 | 0.00 | 0.00 | 0.00 | 75 | 1010.8 |
| 20260506152459 | 69 | 158 | 5.0 | 6.0 | 0.00 | 0.00 | 0.00 | 76 | 1010.8 |
| 20260506152258 | 69 | 158 | 6.0 | 6.0 | 0.00 | 0.00 | 0.00 | 76 | 1010.8 |
| 20260506152058 | 69 | 158 | 7.0 | 8.0 | 0.00 | 0.00 | 0.00 | 76 | 1010.8 |
| 20260506151846 | 69 | 158 | 6.0 | 6.0 | 0.00 | 0.00 | 0.00 | 77 | 1010.8 |
| 20260506151646 | 69 | 158 | 8.0 | 8.0 | 0.00 | 0.00 | 0.00 | 75 | 1010.8 |
| 20260506151446 | 69 | 158 | 4.0 | 4.0 | 0.00 | 0.00 | 0.00 | 76 | 1010.8 |
| 20260506151234 | 69 | 158 | 6.0 | 6.0 | 0.00 | 0.00 | 0.00 | 77 | 1010.8 |
| 20260506151034 | 69 | 135 | 7.0 | 7.0 | 0.00 | 0.00 | 0.00 | 75 | 1010.8 |
| 20260506150834 | 69 | 158 | 8.0 | 9.0 | 0.00 | 0.00 | 0.00 | 75 | 1010.8 |
| 20260506150622 | 69 | 135 | 5.0 | 5.0 | 0.00 | 0.00 | 0.00 | 76 | 1010.8 |
| 20260506150422 | 70 | 135 | 8.0 | 8.0 | 0.00 | 0.00 | 0.00 | 75 | 1010.8 |
| 20260506150222 | 70 | 135 | 7.0 | 8.0 | 0.00 | 0.00 | 0.00 | 75 | 1010.8 |
| 20260506150011 | 70 | 135 | 8.0 | 8.0 | 0.00 | 0.00 | 0.00 | 75 | 1010.8 |
| 20260506145810 | 70 | 158 | 8.0 | 8.0 | 0.00 | 0.00 | 0.00 | 74 | 1010.8 |
| 20260506145610 | 70 | 158 | 5.0 | 5.0 | 0.00 | 0.00 | 0.00 | 74 | 1010.8 |
| 20260506145359 | 70 | 202 | 7.0 | 7.0 | 0.00 | 0.00 | 0.00 | 72 | 1010.8 |
| 20260506145158 | 70 | 135 | 5.0 | 5.0 | 0.00 | 0.00 | 0.00 | 74 | 1010.8 |
| 20260506144958 | 71 | 135 | 9.0 | 11.0 | 0.00 | 0.00 | 0.00 | 72 | 1010.8 |
| 20260506144746 | 71 | 158 | 5.0 | 5.0 | 0.00 | 0.00 | 0.00 | 72 | 1010.8 |
| 20260506144546 | 71 | 135 | 4.0 | 5.0 | 0.00 | 0.00 | 0.00 | 73 | 1011.8 |
| 20260506144346 | 71 | 225 | 5.0 | 5.0 | 0.00 | 0.00 | 0.00 | 70 | 1011.8 |
| 20260506144135 | 71 | 112 | 6.0 | 6.0 | 0.00 | 0.00 | 0.00 | 73 | 1011.8 |
| 20260506143934 | 71 | 135 | 7.0 | 8.0 | 0.00 | 0.00 | 0.00 | 73 | 1011.8 |
| 20260506143734 | 71 | 112 | 6.0 | 6.0 | 0.00 | 0.00 | 0.00 | 71 | 1011.8 |
| 20260506143522 | 71 | 158 | 2.0 | 2.0 | 0.00 | 0.00 | 0.00 | 69 | 1011.8 |
| 20260506143322 | 71 | 202 | 5.0 | 5.0 | 0.00 | 0.00 | 0.00 | 70 | 1011.8 |
| 20260506143122 | 71 | 180 | 6.0 | 6.0 | 0.00 | 0.00 | 0.00 | 73 | 1011.8 |
| 20260506142910 | 71 | 158 | 7.0 | 8.0 | 0.00 | 0.00 | 0.00 | 71 | 1011.8 |
| 20260506142710 | 70 | 202 | 6.0 | 6.0 | 0.00 | 0.00 | 0.00 | 72 | 1011.8 |
| 20260506142510 | 70 | 248 | 8.0 | 8.0 | 0.00 | 0.00 | 0.00 | 71 | 1011.8 |
| 20260506142258 | 71 | 158 | 6.0 | 7.0 | 0.00 | 0.00 | 0.00 | 71 | 1011.8 |
| 20260506142058 | 71 | 135 | 6.0 | 6.0 | 0.00 | 0.00 | 0.00 | 72 | 1011.8 |
| 20260506141858 | 71 | 135 | 6.0 | 6.0 | 0.00 | 0.00 | 0.00 | 72 | 1011.8 |
| 20260506141646 | 71 | 158 | 5.0 | 5.0 | 0.00 | 0.00 | 0.00 | 73 | 1011.8 |
| 20260506141446 | 71 | 158 | 4.0 | 5.0 | 0.00 | 0.00 | 0.00 | 72 | 1010.8 |
| 20260506141246 | 71 | 158 | 6.0 | 6.0 | 0.00 | 0.00 | 0.00 | 71 | 1010.8 |
| 20260506141034 | 71 | 158 | 4.0 | 4.0 | 0.00 | 0.00 | 0.00 | 71 | 1010.8 |
| 20260506140834 | 71 | 180 | 5.0 | 5.0 | 0.00 | 0.00 | 0.00 | 72 | 1010.8 |
| 20260506140634 | 71 | 158 | 8.0 | 8.0 | 0.00 | 0.00 | 0.00 | 70 | 1010.8 |
| 20260506140423 | 71 | 135 | 4.0 | 5.0 | 0.00 | 0.00 | 0.00 | 70 | 1010.8 |
| 20260506140222 | 71 | 180 | 7.0 | 7.0 | 0.00 | 0.00 | 0.00 | 70 | 1010.8 |
| 20260506140022 | 71 | 158 | 8.0 | 8.0 | 0.00 | 0.00 | 0.00 | 70 | 1010.8 |
| 20260506135810 | 71 | 202 | 8.0 | 9.0 | 0.00 | 0.00 | 0.00 | 70 | 1010.8 |
| 20260506135610 | 71 | 158 | 8.0 | 9.0 | 0.00 | 0.00 | 0.00 | 72 | 1010.8 |
| 20260506135410 | 71 | 158 | 5.0 | 5.0 | 0.00 | 0.00 | 0.00 | 71 | 1010.8 |
| 20260506135158 | 71 | 135 | 9.0 | 10.0 | 0.00 | 0.00 | 0.00 | 73 | 1010.8 |
| 20260506134958 | 71 | 225 | 5.0 | 5.0 | 0.00 | 0.00 | 0.00 | 73 | 1010.8 |
| 20260506134758 | 71 | 180 | 6.0 | 6.0 | 0.00 | 0.00 | 0.00 | 73 | 1010.8 |
| 20260506134546 | 70 | 158 | 6.0 | 6.0 | 0.00 | 0.00 | 0.00 | 74 | 1010.8 |
| 20260506134346 | 70 | 180 | 9.0 | 10.0 | 0.00 | 0.00 | 0.00 | 72 | 1011.8 |
| 20260506134146 | 70 | 135 | 8.0 | 9.0 | 0.00 | 0.00 | 0.00 | 73 | 1011.8 |
| 20260506133934 | 70 | 112 | 8.0 | 9.0 | 0.00 | 0.00 | 0.00 | 72 | 1011.8 |
| 20260506133734 | 70 | 135 | 6.0 | 7.0 | 0.00 | 0.00 | 0.00 | 74 | 1011.8 |
| 20260506133534 | 70 | 135 | 7.0 | 7.0 | 0.00 | 0.00 | 0.00 | 72 | 1011.8 |
| 20260506133322 | 70 | 135 | 9.0 | 9.0 | 0.00 | 0.00 | 0.00 | 74 | 1011.8 |
| 20260506133122 | 70 | 112 | 5.0 | 5.0 | 0.00 | 0.00 | 0.00 | 73 | 1011.8 |
| 20260506132922 | 70 | 135 | 9.0 | 10.0 | 0.00 | 0.00 | 0.00 | 74 | 1011.8 |
| 20260506132710 | 70 | 135 | 5.0 | 5.0 | 0.00 | 0.00 | 0.00 | 73 | 1011.8 |
| 20260506132510 | 70 | 135 | 6.0 | 6.0 | 0.00 | 0.00 | 0.00 | 74 | 1011.8 |
| 20260506132310 | 70 | 158 | 8.0 | 8.0 | 0.00 | 0.00 | 0.00 | 74 | 1011.8 |
| 20260506132058 | 70 | 112 | 8.0 | 9.0 | 0.00 | 0.00 | 0.00 | 73 | 1011.8 |
| 20260506131858 | 70 | 112 | 6.0 | 6.0 | 0.00 | 0.00 | 0.00 | 72 | 1011.8 |
| 20260506131658 | 71 | 158 | 7.0 | 8.0 | 0.00 | 0.00 | 0.00 | 72 | 1011.8 |
| 20260506131446 | 70 | 90 | 4.0 | 5.0 | 0.00 | 0.00 | 0.00 | 73 | 1011.8 |
| 20260506131246 | 71 | 135 | 10.0 | 10.0 | 0.00 | 0.00 | 0.00 | 73 | 1011.8 |
| 20260506131046 | 71 | 158 | 6.0 | 6.0 | 0.00 | 0.00 | 0.00 | 72 | 1011.8 |
| 20260506130834 | 71 | 180 | 5.0 | 5.0 | 0.00 | 0.00 | 0.00 | 72 | 1011.8 |
| 20260506130634 | 71 | 135 | 7.0 | 8.0 | 0.00 | 0.00 | 0.00 | 71 | 1011.8 |
| 20260506130434 | 71 | 158 | 8.0 | 8.0 | 0.00 | 0.00 | 0.00 | 72 | 1011.8 |
| 20260506130222 | 71 | 135 | 8.0 | 9.0 | 0.00 | 0.00 | 0.00 | 73 | 1011.8 |
| 20260506130022 | 71 | 135 | 7.0 | 7.0 | 0.00 | 0.00 | 0.00 | 71 | 1011.8 |
| 20260506125822 | 71 | 158 | 7.0 | 8.0 | 0.00 | 0.00 | 0.00 | 72 | 1011.8 |
| 20260506125610 | 71 | 158 | 9.0 | 10.0 | 0.00 | 0.00 | 0.00 | 71 | 1011.8 |
| 20260506125410 | 71 | 112 | 8.0 | 9.0 | 0.00 | 0.00 | 0.00 | 72 | 1011.8 |
| 20260506125210 | 70 | 158 | 9.0 | 10.0 | 0.00 | 0.00 | 0.00 | 73 | 1011.8 |
| 20260506124958 | 70 | 112 | 9.0 | 9.0 | 0.00 | 0.00 | 0.00 | 72 | 1011.8 |
| 20260506124758 | 70 | 158 | 5.0 | 6.0 | 0.00 | 0.00 | 0.00 | 71 | 1011.8 |
| 20260506124558 | 71 | 158 | 6.0 | 7.0 | 0.00 | 0.00 | 0.00 | 72 | 1011.8 |
| 20260506124346 | 71 | 180 | 8.0 | 8.0 | 0.00 | 0.00 | 0.00 | 71 | 1011.8 |
| 20260506124146 | 71 | 225 | 5.0 | 5.0 | 0.00 | 0.00 | 0.00 | 71 | 1011.8 |
| 20260506123946 | 71 | 158 | 5.0 | 5.0 | 0.00 | 0.00 | 0.00 | 73 | 1011.8 |
| 20260506123734 | 71 | 158 | 9.0 | 10.0 | 0.00 | 0.00 | 0.00 | 70 | 1011.8 |
| 20260506123534 | 71 | 135 | 8.0 | 9.0 | 0.00 | 0.00 | 0.00 | 70 | 1011.8 |
| 20260506123334 | 71 | 112 | 8.0 | 8.0 | 0.00 | 0.00 | 0.00 | 70 | 1011.8 |
| 20260506123122 | 71 | 112 | 6.0 | 6.0 | 0.00 | 0.00 | 0.00 | 69 | 1011.8 |
| 20260506122922 | 71 | 180 | 8.0 | 9.0 | 0.00 | 0.00 | 0.00 | 69 | 1011.8 |
| 20260506122722 | 71 | 158 | 8.0 | 9.0 | 0.00 | 0.00 | 0.00 | 67 | 1011.8 |
| 20260506122510 | 71 | 158 | 3.0 | 4.0 | 0.00 | 0.00 | 0.00 | 67 | 1011.8 |
| 20260506122310 | 71 | 158 | 8.0 | 8.0 | 0.00 | 0.00 | 0.00 | 69 | 1011.8 |
| 20260506122110 | 71 | 158 | 4.0 | 4.0 | 0.00 | 0.00 | 0.00 | 67 | 1011.8 |
| 20260506121858 | 71 | 180 | 8.0 | 9.0 | 0.00 | 0.00 | 0.00 | 65 | 1011.8 |
| 20260506121658 | 72 | 158 | 6.0 | 6.0 | 0.00 | 0.00 | 0.00 | 66 | 1011.8 |
| 20260506121458 | 72 | 202 | 9.0 | 10.0 | 0.00 | 0.00 | 0.00 | 67 | 1011.8 |
| 20260506121246 | 72 | 158 | 8.0 | 9.0 | 0.00 | 0.00 | 0.00 | 66 | 1011.8 |
| 20260506121046 | 72 | 180 | 7.0 | 7.0 | 0.00 | 0.00 | 0.00 | 65 | 1011.8 |
| 20260506120846 | 72 | 202 | 7.0 | 8.0 | 0.00 | 0.00 | 0.00 | 65 | 1011.8 |
| 20260506120634 | 72 | 202 | 8.0 | 9.0 | 0.00 | 0.00 | 0.00 | 68 | 1011.8 |
| 20260506120434 | 71 | 202 | 9.0 | 10.0 | 0.00 | 0.00 | 0.00 | 68 | 1011.8 |
| 20260506120234 | 71 | 158 | 7.0 | 8.0 | 0.00 | 0.00 | 0.00 | 67 | 1011.8 |
| 20260506120022 | 71 | 180 | 5.0 | 5.0 | 0.00 | 0.00 | 0.00 | 68 | 1011.8 |
| 20260506115822 | 71 | 135 | 9.0 | 10.0 | 0.00 | 0.00 | 0.00 | 66 | 1011.8 |
| 20260506115622 | 71 | 202 | 5.0 | 5.0 | 0.00 | 0.00 | 0.00 | 70 | 1011.8 |
| 20260506115410 | 71 | 158 | 8.0 | 8.0 | 0.00 | 0.00 | 0.00 | 69 | 1011.8 |
| 20260506115209 | 71 | 135 | 8.0 | 8.0 | 0.00 | 0.00 | 0.00 | 68 | 1011.8 |
| 20260506115010 | 71 | 158 | 7.0 | 7.0 | 0.00 | 0.00 | 0.00 | 69 | 1011.8 |
| 20260506114758 | 71 | 180 | 10.0 | 12.0 | 0.00 | 0.00 | 0.00 | 67 | 1011.8 |
| 20260506114558 | 71 | 180 | 8.0 | 10.0 | 0.00 | 0.00 | 0.00 | 68 | 1012.9 |
| 20260506114358 | 71 | 158 | 10.0 | 11.0 | 0.00 | 0.00 | 0.00 | 67 | 1012.9 |
| 20260506114146 | 71 | 135 | 9.0 | 10.0 | 0.00 | 0.00 | 0.00 | 68 | 1012.9 |
| 20260506113946 | 71 | 135 | 11.0 | 13.0 | 0.00 | 0.00 | 0.00 | 67 | 1012.9 |
| 20260506113746 | 71 | 158 | 7.0 | 8.0 | 0.00 | 0.00 | 0.00 | 70 | 1012.9 |
| 20260506113534 | 71 | 158 | 9.0 | 10.0 | 0.00 | 0.00 | 0.00 | 68 | 1012.9 |
| 20260506113334 | 71 | 180 | 8.0 | 9.0 | 0.00 | 0.00 | 0.00 | 69 | 1011.8 |
| 20260506113134 | 71 | 158 | 8.0 | 9.0 | 0.00 | 0.00 | 0.00 | 69 | 1011.8 |
| 20260506112922 | 71 | 158 | 9.0 | 10.0 | 0.00 | 0.00 | 0.00 | 69 | 1011.8 |
| 20260506112722 | 71 | 202 | 6.0 | 6.0 | 0.00 | 0.00 | 0.00 | 67 | 1011.8 |
| 20260506112522 | 71 | 158 | 8.0 | 9.0 | 0.00 | 0.00 | 0.00 | 68 | 1011.8 |
| 20260506112315 | 71 | 202 | 7.0 | 7.0 | 0.00 | 0.00 | 0.00 | 69 | 1011.8 |
| 20260506112110 | 71 | 158 | 9.0 | 10.0 | 0.00 | 0.00 | 0.00 | 68 | 1011.8 |
| 20260506111926 | 71 | 158 | 6.0 | 6.0 | 0.00 | 0.00 | 0.00 | 71 | 1011.8 |
| 20260506111658 | 71 | 158 | 7.0 | 8.0 | 0.00 | 0.00 | 0.00 | 69 | 1011.8 |
| 20260506111457 | 71 | 158 | 8.0 | 8.0 | 0.00 | 0.00 | 0.00 | 69 | 1011.8 |
| 20260506111258 | 71 | 158 | 7.0 | 7.0 | 0.00 | 0.00 | 0.00 | 70 | 1011.8 |
| 20260506111046 | 71 | 180 | 5.0 | 5.0 | 0.00 | 0.00 | 0.00 | 71 | 1011.8 |
| 20260506110845 | 71 | 202 | 6.0 | 6.0 | 0.00 | 0.00 | 0.00 | 72 | 1011.8 |
| 20260506110646 | 71 | 202 | 6.0 | 6.0 | 0.00 | 0.00 | 0.00 | 71 | 1011.8 |
| 20260506110434 | 71 | 158 | 9.0 | 10.0 | 0.00 | 0.00 | 0.00 | 70 | 1011.8 |
| 20260506110233 | 71 | 135 | 7.0 | 8.0 | 0.00 | 0.00 | 0.00 | 69 | 1012.9 |
| 20260506110034 | 71 | 202 | 6.0 | 7.0 | 0.00 | 0.00 | 0.00 | 67 | 1012.9 |
| 20260506105822 | 71 | 180 | 9.0 | 10.0 | 0.00 | 0.00 | 0.00 | 71 | 1012.9 |
| 20260506105622 | 71 | 135 | 8.0 | 9.0 | 0.00 | 0.00 | 0.00 | 70 | 1012.9 |
| 20260506105422 | 70 | 135 | 7.0 | 8.0 | 0.00 | 0.00 | 0.00 | 70 | 1012.9 |
| 20260506105210 | 71 | 112 | 6.0 | 6.0 | 0.00 | 0.00 | 0.00 | 71 | 1012.9 |
| 20260506105010 | 71 | 202 | 9.0 | 10.0 | 0.00 | 0.00 | 0.00 | 71 | 1012.9 |
| 20260506104810 | 71 | 135 | 8.0 | 8.0 | 0.00 | 0.00 | 0.00 | 70 | 1012.9 |
| 20260506104558 | 70 | 158 | 10.0 | 10.0 | 0.00 | 0.00 | 0.00 | 70 | 1012.9 |
| 20260506104358 | 70 | 158 | 7.0 | 7.0 | 0.00 | 0.00 | 0.00 | 73 | 1012.9 |
| 20260506104157 | 70 | 158 | 8.0 | 9.0 | 0.00 | 0.00 | 0.00 | 71 | 1012.9 |
| 20260506103946 | 70 | 180 | 6.0 | 6.0 | 0.00 | 0.00 | 0.00 | 73 | 1012.9 |
| 20260506103745 | 69 | 112 | 8.0 | 9.0 | 0.00 | 0.00 | 0.00 | 72 | 1012.9 |
| 20260506103546 | 70 | 158 | 7.0 | 8.0 | 0.00 | 0.00 | 0.00 | 74 | 1012.9 |
| 20260506103334 | 70 | 158 | 9.0 | 9.0 | 0.00 | 0.00 | 0.00 | 73 | 1012.9 |
| 20260506103133 | 70 | 158 | 8.0 | 9.0 | 0.00 | 0.00 | 0.00 | 73 | 1012.9 |
| 20260506102934 | 70 | 158 | 9.0 | 9.0 | 0.00 | 0.00 | 0.00 | 72 | 1012.9 |
| 20260506102723 | 70 | 158 | 5.0 | 5.0 | 0.00 | 0.00 | 0.00 | 74 | 1012.9 |
| 20260506102522 | 70 | 112 | 9.0 | 9.0 | 0.00 | 0.00 | 0.00 | 72 | 1012.9 |
| 20260506102322 | 70 | 158 | 8.0 | 9.0 | 0.00 | 0.00 | 0.00 | 72 | 1012.9 |
| 20260506102110 | 70 | 135 | 6.0 | 6.0 | 0.00 | 0.00 | 0.00 | 73 | 1012.9 |
| 20260506101909 | 70 | 112 | 5.0 | 6.0 | 0.00 | 0.00 | 0.00 | 74 | 1012.9 |
| 20260506101709 | 70 | 135 | 9.0 | 10.0 | 0.00 | 0.00 | 0.00 | 73 | 1012.9 |
| 20260506101458 | 70 | 112 | 8.0 | 9.0 | 0.00 | 0.00 | 0.00 | 72 | 1012.9 |
| 20260506101258 | 70 | 112 | 9.0 | 10.0 | 0.00 | 0.00 | 0.00 | 75 | 1012.9 |
| 20260506101057 | 70 | 135 | 7.0 | 8.0 | 0.00 | 0.00 | 0.00 | 73 | 1012.9 |
| 20260506100846 | 71 | 135 | 7.0 | 8.0 | 0.00 | 0.00 | 0.00 | 73 | 1012.9 |
| 20260506100646 | 71 | 135 | 9.0 | 10.0 | 0.00 | 0.00 | 0.00 | 73 | 1012.9 |
| 20260506100445 | 71 | 112 | 7.0 | 7.0 | 0.00 | 0.00 | 0.00 | 73 | 1012.9 |
| 20260506100234 | 71 | 135 | 6.0 | 6.0 | 0.00 | 0.00 | 0.00 | 73 | 1012.9 |
| 20260506100033 | 71 | 135 | 9.0 | 10.0 | 0.00 | 0.00 | 0.00 | 71 | 1012.9 |
| 20260506095834 | 70 | 158 | 6.0 | 6.0 | 0.00 | 0.00 | 0.00 | 71 | 1012.9 |
| 20260506095622 | 70 | 158 | 8.0 | 9.0 | 0.00 | 0.00 | 0.00 | 73 | 1012.9 |
| 20260506095421 | 70 | 135 | 9.0 | 10.0 | 0.00 | 0.00 | 0.00 | 71 | 1012.9 |
| 20260506095222 | 70 | 158 | 6.0 | 6.0 | 0.00 | 0.00 | 0.00 | 72 | 1012.9 |
| 20260506095010 | 70 | 202 | 9.0 | 10.0 | 0.00 | 0.00 | 0.00 | 72 | 1012.9 |
| 20260506094809 | 69 | 158 | 9.0 | 10.0 | 0.00 | 0.00 | 0.00 | 74 | 1012.9 |
| 20260506094610 | 69 | 158 | 6.0 | 6.0 | 0.00 | 0.00 | 0.00 | 72 | 1012.9 |
| 20260506094358 | 70 | 158 | 9.0 | 10.0 | 0.00 | 0.00 | 0.00 | 72 | 1012.9 |
| 20260506094157 | 70 | 135 | 7.0 | 8.0 | 0.00 | 0.00 | 0.00 | 73 | 1012.9 |
| 20260506093957 | 70 | 112 | 9.0 | 12.0 | 0.00 | 0.00 | 0.00 | 74 | 1012.9 |